Find Starlink 32283

NORAD ID: 62425 Int'l Des: 2024-249 Owner: SPXS Country: US Constellation: starlink operational
LEOCIRCULAR

Current View

Loading 3D Globe...

About Starlink 32283

Starlink 32283 (NORAD 62425) is a starlink constellation satellite (v2 mini) launched Dec 23, 2024 by SPXS of US. It operates in LEO, CIRCULAR orbit with a mass of 730.00 kg.

Upcoming Passes

Passes for default location (London). Set your location on the main map for personalized predictions.

Altitude History

Loading altitude history...

Two-Line Element Set

1 62425U 24249S 26263.14164562 .00010043 00000-0 37384-3 0 9994
2 62425 42.9967 292.3467 0001088 253.8388 106.2344 15.27591330 97591
Epoch: Sep 20, 2026 • Age: 16 hours

Current Status

Altitude 482.4 km
Apogee / Perigee N/A
Velocity 7.63 km/s
Sub-Earth Point 12.16°N, 14.69°E
Launch Date Dec 23, 2024
Age 1.7 years
Type internet

Technical Details

Classification Payload
Mass 730.00 kg
Dry Mass 700.00 kg
Length 0.30 m
Span 29.00 m
Shape ? Box + pan
Manufacturer SPXS
Bus Type Starlink V2M
Phase Status In Orbit
Owner/State SPXS/US

Most Searched